Location: Beaumont
(47.1904°N, 3.2256°E)
Time: 09:31:12
(UTC+00:00)

Daily predictions for brighter satellites

Satellite Brightness Start Highest point End
(mag) Time Altitude Azimuth Time Altitude Azimuth Time Altitude Azimuth
STARLINK-1096 3.8 20:04:54 10° WNW 20:09:01 67° SW 20:13:08 10° SE
Okean 3 3.5 20:05:06 10° S 20:09:21 66° E 20:13:39 10° NNE
ASTEX 1 4.5 20:06:29 10° SSW 20:11:11 47° W 20:15:58 10° NNW
STARLINK-1104 4.3 20:07:09 10° WNW 20:11:13 51° NNE 20:15:16 10° E
STARLINK-1230 3.6 20:07:51 10° WSW 20:11:59 83° SSE 20:16:09 10° ENE
STARLINK-1079 3.9 20:09:53 10° WNW 20:14:00 62° SW 20:18:05 10° SE
STARLINK-1144 4.3 20:12:08 10° WNW 20:16:13 53° NNE 20:20:17 10° E
STARLINK-1243 3.6 20:12:50 10° WSW 20:16:59 89° SSE 20:21:09 10° ENE
SL-4 R/B 2.3 20:14:08 10° NW 20:17:01 38° WSW 20:19:42 10° S
Cosmos 2221 Rocket 3.6 20:12:43 10° S 20:17:14 74° E 20:21:48 10° NNE
STARLINK-1116 3.9 20:14:53 10° WNW 20:18:58 58° SW 20:23:01 10° SE
SPOT 5 4.4 20:15:07 10° ESE 20:19:26 27° ENE 20:23:50 10° N
NOSS 8 (F) 4.4 20:17:06 10° SSW 20:20:17 47° SE 20:23:14 10° NE
Meteor 1-13 Rocket 4.3 20:15:21 10° S 20:20:51 61° E 20:26:32 10° NNE
STARLINK-1103 4.2 20:17:07 10° WNW 20:21:12 55° NNE 20:25:17 10° E
STARLINK-1236 3.7 20:17:47 10° WSW 20:21:57 86° NNW 20:26:07 10° ENE
ERS-1 Rocket 4.1 20:20:09 10° SE 20:24:32 31° ENE 20:28:56 10° N
STARLINK-1101 4.1 20:22:06 10° WNW 20:26:12 58° NNE 20:30:17 10° ESE
STARLINK-1094 4.1 20:24:52 10° WNW 20:28:53 49° SW 20:32:47 11° SE
USA 245 3.0 20:27:56 10° SE 20:30:45 41° ENE 20:33:10 10° N
STARLINK-1102 4.0 20:27:05 10° WNW 20:31:12 61° NNE 20:35:18 10° ESE
STARLINK-1269 3.8 20:27:46 10° WSW 20:31:55 77° NNW 20:36:05 10° ENE
Cosmos 2278 Rocket 2.9 20:27:31 10° SW 20:33:07 59° WNW 20:38:45 10° NNE
TSX-5 4.5 20:27:46 10° SSW 20:33:20 56° ESE 20:37:40 10° NE
STARLINK-1117 4.2 20:29:52 10° WNW 20:33:51 46° SW 20:37:34 11° SE
Okean 1 Rocket 3.8 20:29:46 10° N 20:33:59 39° ENE 20:37:54 11° SE
Resurs 01 Rocket 2.1 20:29:51 10° S 20:34:15 61° WSW 20:38:41 10° NNW
GPS 2-04 Rocket1 4.5 20:32:44 10° SSW 20:34:26 13° S 20:35:57 11° SSE
Cosmos 1741 Rocket 4.0 20:29:16 10° NNW 20:34:31 84° ENE 20:39:45 10° SSE
Okean 2 Rocket 3.4 20:30:21 10° NNW 20:34:46 68° W 20:39:07 10° S
Nadezhda 4 Rocket 4.5 20:29:26 10° SSE 20:35:07 41° E 20:40:48 10° NNE
STARLINK-1111 3.9 20:32:03 10° WNW 20:36:11 64° NNE 20:40:18 10° ESE
STARLINK-1200 3.9 20:32:45 10° WSW 20:36:53 73° NNW 20:41:02 10° ENE
Meteor 1-12 Rocket 4.5 20:32:25 10° NNW 20:38:04 73° W 20:43:45 10° S
MetOp-B 4.2 20:32:46 10° SSE 20:38:07 88° ENE 20:43:31 10° NNW
STARLINK-1078 4.3 20:34:53 10° WNW 20:38:48 42° SW 20:42:21 12° SSE
SL-8 R/B 3.7 20:36:20 10° WNW 20:41:09 87° SSW 20:45:59 10° ESE
STARLINK-1073 3.9 20:37:03 10° WNW 20:41:11 68° NNE 20:45:19 10° ESE
STARLINK-1192 4.0 20:37:45 10° WSW 20:41:54 69° NNW 20:46:02 10° ENE
Cosmos 2279 Rocket 4.1 20:36:32 10° N 20:42:48 81° W 20:49:00 10° S
STARLINK-1108 4.5 20:39:53 10° WNW 20:43:46 39° SW 20:47:08 13° SSE
Cosmos 1850 Rocket 4.2 20:38:43 10° NNW 20:44:06 79° WSW 20:49:25 10° SSE
Cosmos 371 Rocket 3.7 20:40:15 10° SSW 20:45:05 70° WNW 20:49:59 10° NNE
ATLAS 3B CENTAUR R/B 4.3 20:34:38 10° SW 20:45:24 24° S 20:50:57 13° SE
STARLINK-1121 3.8 20:42:01 10° WNW 20:46:10 72° NNE 20:50:08 11° ESE
SL-4 R/B 3.8 20:43:24 10° S 20:46:30 17° SE 20:49:39 10° E
STARLINK-1244 4.1 20:42:45 10° WSW 20:46:52 65° NNW 20:51:00 10° ENE
Cosmos 1110 Rocket 4.3 20:42:19 10° S 20:47:16 47° ESE 20:52:14 10° NNE
Terra 3.0 20:44:22 12° ESE 20:48:11 30° ENE 20:52:20 10° N
Spot 2 Rocket 3.5 20:44:13 10° SSE 20:49:16 90° ENE 20:54:21 10° NNW
Cosmos 2151 Rocket 3.9 20:45:00 10° NNW 20:49:31 69° W 20:54:00 10° S
Abrixas rocket 2.0 20:46:46 10° W 20:49:41 61° SSW 20:51:50 16° ESE
SPOT 1/Viking Rocket 3.6 20:45:17 11° SSE 20:50:09 68° ENE 20:55:17 10° N
STARLINK-1106 3.7 20:47:00 10° WNW 20:51:10 76° NNE 20:54:56 12° ESE
CARTOSAT-1 4.1 20:47:49 14° SE 20:51:19 44° ENE 20:55:26 10° N
NOSS 8 (H) 4.1 20:48:16 10° SSW 20:51:26 60° SE 20:54:27 10° NE
STARLINK-1138 4.2 20:47:45 10° WSW 20:51:52 62° NNW 20:55:59 10° ENE
STARLINK-1112 3.7 20:51:58 10° WNW 20:56:08 81° NNE 20:59:42 14° ESE
STARLINK-1143 4.3 20:52:44 10° WSW 20:56:50 59° NNW 21:00:57 10° ENE
Aureole 2 4.0 20:55:28 10° NNW 20:58:37 84° ENE 21:00:36 19° SSE
STARLINK-1128 3.6 20:56:56 10° WNW 21:01:06 85° NNE 21:04:28 15° ESE
STARLINK-1241 4.4 20:57:47 10° W 21:01:52 56° NNW 21:05:58 10° ENE
Cosmos 1331 Rocket 4.0 20:58:58 10° S 21:04:01 59° ESE 21:09:08 10° NNE
deb Kosmos-1763 4.1 21:00:44 10° NNW 21:04:20 75° WSW 21:06:57 17° SSE
Aureole 2 Rocket 2.2 21:01:44 10° SSW 21:04:50 77° WNW 21:07:49 10° NNE
STARLINK-1113 3.6 21:01:55 10° WNW 21:06:06 89° S 21:09:16 17° ESE
STARLINK-1239 4.5 21:02:47 10° W 21:06:51 53° NNW 21:10:56 10° ENE
Cosmos 1733 4.1 21:03:52 10° N 21:07:23 34° ENE 21:09:32 19° SE
Cosmos 1437 Rocket 3.4 21:06:05 10° SSW 21:09:47 55° WNW 21:13:35 10° N
STARLINK-1119 3.6 21:06:56 10° WNW 21:11:06 84° SSW 21:14:04 18° ESE
Cosmos 1378 3.3 21:09:41 17° SSE 21:12:19 54° E 21:15:58 10° NNE
ISS -1.5 21:13:36 10° W 21:15:34 15° SW 21:17:02 12° SSW
STARLINK-1114 3.6 21:11:53 10° WNW 21:16:02 79° SSW 21:18:49 20° SE
Cosmos 1242 Rocket 4.3 21:15:26 16° ESE 21:16:23 18° E 21:18:56 10° NE
Cosmos 304 Rocket 4.0 21:11:42 10° SSW 21:16:29 74° WNW 21:21:17 10° NNE
USA 215 4.4 21:10:36 10° ENE 21:16:39 41° N 21:22:41 10° NW
Lacrosse 5 3.6 21:14:43 10° WNW 21:18:34 22° SW 21:22:07 11° S
Cosmos 1092 Rocket 4.1 21:15:31 15° SSE 21:20:34 58° E 21:26:35 10° NNE
STARLINK-1130 (DARKSAT) 3.6 21:16:53 10° WNW 21:21:01 74° SSW 21:23:36 22° SE
NOSS 2-2 (D) 3.0 21:17:40 10° SSW 21:21:13 76° SE 21:25:12 10° NE
CENTAUR R/B 3.6 21:15:33 10° NW 21:23:17 57° NE 21:31:08 13° ESE
Cosmos 1674 Rocket 4.4 21:20:43 10° SSW 21:24:58 50° WNW 21:29:17 10° N
STARLINK-1084 3.6 21:21:52 10° WNW 21:26:00 69° SSW 21:28:23 24° SE
ATLAS 3B R/B 4.0 21:20:13 10° NNW 21:26:15 33° NNE 21:32:27 10° E
SL-27 R/B 3.3 21:24:22 10° N 21:27:47 40° ENE 21:29:28 24° ESE
Cosmos 1378 Rocket 4.0 21:23:27 10° SSW 21:27:49 61° WNW 21:32:10 10° N
NOSS 3-2 (C) 4.3 21:21:16 10° NW 21:28:37 64° NE 21:35:36 15° SE
Cosmos 1766 3.2 21:26:28 10° N 21:30:28 82° ENE 21:32:47 24° SSE
STARLINK-1098 3.7 21:26:51 10° WNW 21:30:58 64° SSW 21:33:10 26° SE
STARLINK-1123 3.7 21:31:50 10° WNW 21:35:56 59° SW 21:37:56 28° SE
Cosmos 1943 Rocket 2.1 21:31:48 10° SSW 21:37:18 66° ESE 21:42:52 10° NNE
Cosmos 2297 4.2 21:31:52 10° SW 21:37:30 62° WNW 21:43:12 10° NNE
Cosmos 1900 4.4 21:32:56 10° NW 21:37:59 75° WSW 21:41:01 24° SSE
NOSS 2-2 (E) 3.8 21:35:01 10° SW 21:38:34 60° NW 21:42:41 10° NE
NOSS 3-4 (A) 4.3 21:36:32 22° SSE 21:38:49 28° ESE 21:43:57 10° ENE
NOSS 3-4 (C) 4.3 21:36:40 22° SSE 21:38:55 28° ESE 21:44:03 10° ENE
STARLINK-1097 3.8 21:36:51 10° WNW 21:40:55 55° SW 21:42:44 29° SSE
Cosmos 2082 Rocket 4.1 21:38:30 10° NW 21:42:48 22° W 21:47:04 10° SSW
SeaSat 1 3.7 21:39:53 10° NE 21:43:40 22° ESE 21:44:34 21° ESE
STARLINK-1099 3.9 21:41:50 10° WNW 21:45:52 51° SW 21:47:32 30° SSE
Cosmos 1975 Rocket 3.0 21:44:36 23° S 21:47:18 77° E 21:51:43 10° NNE
STARLINK-1212 4.2 21:45:35 10° NW 21:48:32 38° NNE 21:50:46 15° E
STARLINK-1105 4.2 21:46:03 10° NW 21:49:00 38° NNE 21:51:13 15° E
STARLINK-1247 4.2 21:46:55 10° NW 21:49:53 39° NNE 21:52:06 16° E
STARLINK-1227 4.1 21:47:26 10° NW 21:50:22 39° NNE 21:52:32 16° E
BREEZE-M DEB (TANK) 3.8 21:33:46 10° WSW 21:50:34 84° SSE 21:54:41 10° ENE
Cosmos 292 Rocket 4.1 21:48:20 26° SSE 21:50:43 48° ESE 21:55:25 10° NNE
STARLINK-1104 4.0 21:46:50 10° WNW 21:50:49 47° SW 21:52:18 32° SSE
STARLINK-1226 4.1 21:48:16 10° NW 21:51:15 39° NNE 21:53:23 16° E
BREEZE-M DEB (TANK) 3.3 21:47:27 10° W 21:51:39 63° N 21:55:17 10° E
STARLINK-1215 4.1 21:49:10 10° NW 21:52:09 40° NNE 21:54:16 16° E
Cosmos 2369 Rocket 2.2 21:49:04 17° S 21:53:29 65° ESE 21:59:04 10° NNE
STARLINK-1217 4.1 21:50:59 10° NW 21:53:58 40° NNE 21:56:00 17° E
STARLINK-1229 4.0 21:51:54 10° NW 21:54:53 41° NNE 21:56:54 18° E
STARLINK-1144 4.1 21:51:50 10° WNW 21:55:47 43° SW 21:57:05 32° S
STARLINK-1270 4.0 21:52:48 10° NW 21:55:47 41° NNE 21:57:46 18° E
SPOT 5 3.7 21:53:31 19° S 21:57:09 51° W 22:02:24 10° NNW
STARLINK-1189 4.0 21:54:35 10° NW 21:57:35 42° NNE 21:59:29 19° E
Aureole 3 Rocket 4.5 21:52:17 10° N 21:58:29 69° E 22:03:54 24° SSE
STARLINK-1188 4.0 21:55:30 10° NW 21:58:30 42° NNE 22:00:22 19° E
ATLAS CENTAUR R/B 2.8 21:59:35 23° ESE 21:59:35 23° ESE 22:02:38 10° ENE
STARLINK-1187 3.8 21:56:35 10° NW 21:59:36 46° NNE 22:01:14 22° E
STARLINK-1103 4.2 21:56:50 10° WNW 22:00:43 40° SW 22:01:51 32° S
STARLINK-1191 3.9 21:57:56 10° NW 22:00:55 43° NNE 22:02:40 21° E
Cosmos 1340 Rocket 4.5 21:57:42 10° NNE 22:00:59 23° ENE 22:02:31 19° E
STARLINK-1221 3.9 21:58:53 10° NW 22:01:53 44° NNE 22:03:34 22° E
STARLINK-1222 3.9 21:59:44 10° NW 22:02:44 44° NNE 22:04:23 22° E
ERS-1 Rocket 4.0 21:59:40 16° SSW 22:03:13 38° W 22:07:55 10° NNW
NOSS 2-2 (C) 4.3 21:59:47 10° WSW 22:03:14 44° NW 22:07:13 10° NNE
STARLINK-1214 3.8 22:00:37 10° NW 22:03:38 45° NNE 22:05:15 22° E
Cosmos 1025 Rocket 3.7 22:02:58 31° SE 22:04:13 39° E 22:08:15 10° NNE
EXPRESS MD2 4.1 22:00:54 10° W 22:04:37 76° NNW 22:12:19 10° ENE
Okean 2 3.8 22:02:00 21° SSW 22:04:41 61° WNW 22:08:49 10° N
Cosmos 2026 Rocket 4.0 22:00:23 20° S 22:04:59 90° E 22:11:24 10° N
Thor Agena Rocket 4.0 21:59:57 10° NNE 22:05:01 44° E 22:07:12 29° SSE
STARLINK-1101 4.4 22:01:50 10° WNW 22:05:41 37° SW 22:06:38 32° S
ATLAS 2AS CENTAUR R/B 3.2 22:00:30 16° S 22:06:43 53° ESE 22:14:23 10° NE
BREEZE M DEB (TANK) 2.3 22:03:24 10° W 22:07:08 67° NNW 22:08:33 19° ENE
Cosmos 1656 Rocket 4.1 22:04:50 28° SSE 22:07:11 43° ESE 22:12:26 10° NE
Cosmos 1553 Rocket 4.1 22:02:00 10° N 22:08:17 69° ENE 22:11:43 28° SSE
BREEZE-M DEB (TANK) 4.2 21:54:03 10° WNW 22:09:03 84° SSW 22:11:56 23° ESE
Cosmos 1953 3.5 22:05:52 10° N 22:09:28 31° ENE 22:10:41 26° ESE
STARLINK-1228 3.5 22:06:03 10° WNW 22:09:31 62° NNE 22:11:08 29° E
NOSS 3-2 (A) 4.2 22:02:32 10° NW 22:10:00 65° WSW 22:15:11 25° SSE
STARLINK-1102 4.4 22:06:52 10° WNW 22:10:38 34° SW 22:11:26 31° SSW
Cosmos 1470 2.7 22:06:47 10° N 22:10:40 72° E 22:11:51 42° SSE
APEX 4.3 22:06:47 18° SSW 22:11:37 68° ESE 22:16:58 10° NE
STARLINK-1235 3.4 22:08:46 10° WNW 22:11:59 60° NNE 22:13:11 33° E
Cosmos 968 Rocket 3.4 22:09:58 10° NNW 22:15:10 85° ENE 22:17:31 33° SSE
Cosmos 1455 Rocket 3.3 22:13:15 10° NNW 22:17:33 60° W 22:19:25 31° SSW
Cosmos 1655 Rocket 4.3 22:15:02 28° SSE 22:18:06 53° E 22:24:10 10° NNE
SL-4 R/B 3.4 22:20:18 12° NE 22:20:18 12° NE 22:20:55 10° NE
ATLAS 5 CENTAUR R/B 2.1 22:21:46 41° SE 22:21:46 41° SE 22:24:01 10° ENE
USA 238 DEB 4.2 22:14:48 10° NW 22:21:48 54° WSW 22:25:51 27° S
USA 238 4.2 22:14:54 10° NW 22:21:54 55° WSW 22:25:58 27° S
SL-8 R/B 4.4 22:19:03 10° W 22:23:24 34° SW 22:24:13 32° SSW
Cosmos 1758 3.3 22:20:05 10° N 22:24:10 88° E 22:25:25 44° S
SL-4 R/B 2.3 22:20:50 10° SW 22:25:35 68° SSE 22:30:25 10° ENE
Terra 2.9 22:23:15 21° SSW 22:25:50 35° W 22:30:13 10° NNW
Cosmos 1842 4.2 22:24:08 22° SW 22:26:15 44° WNW 22:30:00 10° N
STARLINK-1234 2.9 22:26:31 10° WNW 22:29:48 82° NNE 22:30:16 62° ESE
Cosmos 1503 Rocket 4.0 22:29:58 10° NNW 22:35:20 90° S 22:37:35 36° SSE
STARLINK-1209 2.8 22:32:41 10° WNW 22:35:59 86° SSW 22:36:13 76° SE
Cosmos 2266 Rocket 4.2 22:33:43 31° SSE 22:36:22 52° E 22:42:12 10° NNE
Meteor 2-8 Rocket 4.4 22:34:58 10° N 22:41:09 88° E 22:44:07 33° S
Cosmos 2263 4.3 22:39:18 19° SW 22:43:22 76° WNW 22:49:01 10° NNE
STARLINK-1238 4.5 22:41:06 10° WNW 22:45:09 49° NNE 22:48:47 12° E
Cosmos 1536 Rocket 3.5 22:45:44 43° SSW 22:47:07 85° W 22:51:31 10° N
Cosmos 1674 3.7 22:48:20 32° E 22:48:33 32° E 22:51:57 10° NNE
STARLINK-1201 4.4 22:46:04 10° WNW 22:50:08 51° NNE 22:53:33 14° E
Cosmos 1271 Rocket 3.3 22:49:29 34° SW 22:50:49 52° WNW 22:54:41 10° N
Cosmos 1242 Rocket 4.0 22:49:25 23° WSW 22:51:00 34° WNW 22:54:24 10° N
STARLINK-60 3.3 22:52:21 20° WSW 22:54:19 62° NNW 22:57:29 10° ENE
Cosmos 1354 Rocket 4.1 22:49:21 10° NNW 22:54:38 71° WSW 22:56:35 39° S
STARLINK-1206 4.3 22:51:04 10° WNW 22:55:09 54° NNE 22:58:21 16° E
Spot 4 3.9 22:53:29 40° S 22:55:11 70° WSW 23:00:02 10° NNW
COSMOS 2455 2.8 22:52:49 33° S 22:55:32 65° ESE 23:01:31 10° NE
Cosmos 883 Rocket 4.5 22:50:03 10° N 22:56:12 72° E 22:58:57 34° SSE
Cosmos 1833 4.4 22:53:35 10° NW 22:59:06 57° WSW 23:01:10 36° S
USA 215 3.4 22:52:57 12° ESE 22:59:10 74° NNE 23:05:43 10° NW
STARLINK-1205 4.2 22:56:02 10° WNW 23:00:07 56° NNE 23:03:07 17° E
Cosmos 1707 3.4 22:59:44 36° SW 23:00:53 50° WNW 23:04:41 10° N
Cosmos 2297 Rocket 4.0 22:57:02 10° N 23:01:41 25° NE 23:06:17 10° ESE
Helios 1A 3.9 23:01:35 31° ESE 23:02:52 40° ENE 23:06:49 10° N
Lacrosse 4 Rocket 4.5 23:03:31 10° NNE 23:04:50 11° NNE 23:06:08 10° NE
STARLINK-1218 4.1 23:01:02 10° WNW 23:05:08 59° NNE 23:07:55 19° E
Cosmos 1174 3.2 23:06:36 84° SE 23:06:38 85° SE 23:10:23 10° NE
Cosmos 1726 2.2 23:03:11 10° NNW 23:06:53 64° W 23:07:20 57° SW
ALOS 2 2.5 23:07:47 50° SSE 23:08:55 84° ENE 23:13:20 10° NNW
Timation 2 Rocket 4.3 23:03:08 10° NNW 23:09:25 61° ENE 23:12:55 26° SE
STARLINK-1254 4.0 23:06:00 10° WNW 23:10:07 62° NNE 23:12:41 22° E
Cosmos 2058 Rocket 4.3 23:06:28 10° N 23:10:29 32° ENE 23:11:58 26° ESE
COSMOS 2487 2.4 23:07:04 10° NNW 23:10:31 64° WSW 23:10:33 64° WSW
CENTAUR R/B 3.6 23:06:24 10° NW 23:14:11 50° WSW 23:18:17 30° S
STARLINK-1231 3.9 23:10:58 10° WNW 23:15:06 65° NNE 23:17:27 24° E
Meteor 1-16 Rocket 4.2 23:10:23 10° NNW 23:15:52 71° W 23:17:49 40° S
Meteor 2-5 Rocket 4.1 23:14:12 35° SE 23:16:03 48° E 23:21:27 10° NNE
Cosmos 1867 3.9 23:12:02 10° NW 23:17:18 50° WSW 23:18:45 39° SSW
ATLAS 3B R/B 2.6 23:10:48 10° NW 23:17:37 80° SW 23:21:09 32° SSE
FALCON 9 DEB 3.6 23:20:07 48° E 23:20:07 48° E 23:22:46 10° ENE
STARLINK-1232 3.8 23:15:58 10° WNW 23:20:06 69° NNE 23:22:15 27° ESE
Cosmos 1606 Rocket 3.5 23:16:19 10° N 23:20:39 76° E 23:21:36 53° SSE
SeaSat 1 2.8 23:16:38 10° NNE 23:21:31 61° WNW 23:24:21 25° SW
Cosmos 1943 Rocket 4.2 23:16:59 10° WSW 23:21:32 25° NW 23:26:08 10° N
Cosmos 2098 Rocket 4.3 23:20:08 34° S 23:23:41 81° E 23:31:12 10° N
STARLINK-29 3.2 23:24:02 65° NW 23:24:12 67° NNW 23:27:24 10° ENE
STARLINK-1208 3.7 23:20:55 10° WNW 23:25:04 73° NNE 23:27:00 30° ESE
NOSS 5 (C) 4.4 23:22:18 10° NW 23:25:31 74° SW 23:25:32 74° SW
ATLAS CENTAUR R/B 3.2 23:25:50 10° NNW 23:27:40 23° NE 23:30:34 10° E
NOSS 3-4 (A) 3.8 23:23:52 13° SW 23:29:11 64° NW 23:35:35 10° NE
NOSS 3-4 (C) 3.8 23:24:01 14° SW 23:29:17 64° NW 23:35:41 10° NE
STARLINK-1271 3.7 23:25:56 10° WNW 23:30:05 77° NNE 23:31:49 34° ESE
STARLINK-1365 4.4 23:31:11 34° E 23:31:11 34° E 23:33:47 10° ENE
RESURS DK-1 2.3 23:29:48 59° SSE 23:30:13 64° ESE 23:34:20 10° NE
STARLINK-1390 4.4 23:33:34 34° E 23:33:34 34° E 23:36:08 10° ENE
Cosmos 2084 3.5 23:33:36 55° SSE 23:34:08 59° SE 23:38:32 10° NE
Cosmos 2315 Rocket 4.0 23:28:11 10° NNW 23:34:23 76° W 23:36:59 37° S
STARLINK-1154 3.6 23:30:54 10° WNW 23:35:04 82° NNE 23:36:36 38° ESE
BREEZE-M R/B 3.9 23:31:44 26° SSW 23:35:21 48° SSE 23:39:20 10° ENE
Cosmos 1626 2.8 23:36:00 41° ESE 23:36:11 41° E 23:39:43 10° NNE
Cosmos 1340 Rocket 3.9 23:33:51 10° NNW 23:37:30 32° W 23:38:06 31° WSW
Cosmos 2369 Rocket 4.1 23:33:16 10° WSW 23:37:58 26° NW 23:42:40 10° N
ATLAS CENTAUR R/B 2.2 23:35:43 24° WSW 23:38:00 49° NW 23:42:00 10° NNE
Okean 1-7 Rocket 3.9 23:37:39 45° SE 23:38:35 54° E 23:43:01 10° NNE
Cosmos 2227 Rocket 3.4 23:33:36 10° NNW 23:38:53 37° NE 23:43:29 13° ESE
STARLINK-1197 3.5 23:35:51 10° WNW 23:40:02 87° NNE 23:41:21 42° ESE
Cosmos 1908 3.4 23:38:25 10° NNW 23:42:10 54° W 23:42:29 52° WSW
Nadezhda 2 Rocket 4.4 23:39:44 38° S 23:42:13 76° E 23:48:21 10° NNE
Aureole 3 4.2 23:42:02 10° NNW 23:44:31 27° W 23:44:31 27° W
STARLINK-1198 3.5 23:40:50 10° WNW 23:45:00 88° SSW 23:46:07 47° ESE
Cosmos 1953 4.0 23:42:35 10° NW 23:45:41 22° W 23:46:22 21° WSW
STARLINK-1199 3.5 23:45:50 10° WNW 23:50:00 83° SSW 23:50:56 53° SE
Landsat 4 3.5 23:46:57 10° NNE 23:50:41 85° ESE 23:51:00 74° S
KORONAS-FOTON 4.4 23:52:25 42° WSW 23:53:02 46° WNW 23:56:47 10° N
STARLINK-1210 3.4 23:50:49 10° WNW 23:54:58 78° SSW 23:55:41 58° SE
